Domov               UVHVVR             MKGP            O straneh              
ZDRAVSTVENO VARSTVO RASTLIN
  MREŽA AGROMET. POSTAJ
 ► PROGNOSTIČNA OBVESTILA
AGROMETEOROLOŠKI PODATKI -
ARSO
OBVLADOVANJE TVEGANJ ZARADI
NEUGODNIH VREMENSKIH RAZMER
  ► NARAVNE NESREČE
  ► SUŠA/MOČA
  ► NAMAKANJE
  ► ŽLED (gozdarstvo)
KARTOGRAFSKI PRIKAZI
SPLETNE POVEZAVE
PROJEKTI IN PUBLIKACIJE

AGROMETEOROLOŠKA MREŽA: VREMENSKE POSTAJE IN FENOLOŠKA OPAZOVANJA

Pregled podatkov za lokacijo Vidonci, meteorološka postaja 42838

Pregled senzorjev na lokaciji

ID Ime Zadnja
vrednost
Datum
zadnje
spremembe
Tip
senzorja
2110 Omočenost lista (U) 0 U 23.8.2017 05:30 A730WET
2111 Temperatura 2 m ( °C) 13,4 °C 23.8.2017 05:30 50YA
2112 Relativna vlaga 2 m (% RH) 64,66 % RH 23.8.2017 05:30 50YA
2113 Padavine 0.2 mm (mm) 0 mm 23.8.2017 05:30 Rain-O-Matic

Pregled podatkov zadnjih 24 ur

Zap.
št.
Datum in čas Vidonci
Omočenost
lista
Padavine
0.2
mm
Relativna
vlaga
2
m
Temperatura
2
m
0 23.8.2017 04:30 0 0 64,66 13,4
1 23.8.2017 04:00 0 0 65,56 13,56
2 23.8.2017 03:30 0 0 66,74 13,84
3 23.8.2017 03:00 0 0 64,92 14,37
4 23.8.2017 02:30 0 0 60,5 15,09
5 23.8.2017 02:00 0 0 61,33 15,1
6 23.8.2017 01:30 0 0 57,28 15,76
7 23.8.2017 01:00 0 0 62,72 14,61
8 23.8.2017 00:30 0 0 61,27 14,65
9 23.8.2017 00:00 0 0 58,92 14,86
10 22.8.2017 23:30 0 0 58,9 14,58
11 22.8.2017 23:00 0 0 63,85 13,14
12 22.8.2017 22:30 0 0 66,24 12,77
13 22.8.2017 22:00 0 0 68,84 12,87
14 22.8.2017 21:30 0 0 66,98 13,35
15 22.8.2017 21:00 0 0 67,65 13,62
16 22.8.2017 20:30 0 0 69,47 13,78
17 22.8.2017 20:00 0 0 69,55 14,42
18 22.8.2017 19:30 0 0 69,39 15,13
19 22.8.2017 19:00 0 0 61,49 16,58
20 22.8.2017 18:30 0 0 52,74 18,36
21 22.8.2017 18:00 0 0 41,58 19,92
22 22.8.2017 17:30 0 0 40,3 20,26
23 22.8.2017 17:00 0 0 39,44 20,7
24 22.8.2017 16:30 0 0 38,43 21,18
25 22.8.2017 16:00 0 0 37,64 21,85
26 22.8.2017 15:30 0 0 35,75 22,14
27 22.8.2017 15:00 0 0 37,03 22,32
28 22.8.2017 14:30 0 0 37,56 21,81
29 22.8.2017 14:00 0 0 37,47 21,81
30 22.8.2017 13:30 0 0 33,91 22,5
31 22.8.2017 13:00 0 0 33,32 23,16
32 22.8.2017 12:30 0 0 34,35 22,36
33 22.8.2017 12:00 0 0 35,11 21,96
34 22.8.2017 11:30 0 0 38,88 21,67
35 22.8.2017 11:00 0 0 40,18 21,39
36 22.8.2017 10:30 0 0 41 20,54
37 22.8.2017 10:00 0 0 42,23 20,37
38 22.8.2017 09:30 0 0 44,23 19,86
39 22.8.2017 09:00 0 0 45,29 20,18
40 22.8.2017 08:30 0 0 47,84 18,72
41 22.8.2017 08:00 0 0 50,48 17,64
42 22.8.2017 07:30 0 0 51,9 16,99
43 22.8.2017 07:00 0 0 55,64 15,28
44 22.8.2017 06:30 0 0 58,96 13,69
© 2011 Ministrstvo za kmetijstvo, gozdarstvo in prehrano. Vse pravice pridržane.